Weather History for Novato, CA

Change the Weather History Date:

Tuesday, August 6, 2013

  Actual Average (KAPC) Record (KAPC)
Temperature  
Mean Temperature 63 °F 65 °F  
Max Temperature 73 °F 79 °F 86 °F (2004)
Min Temperature 53 °F 52 °F 44 °F (2002)
Degree Days  
Heating Degree Days 2    
Month to date heating degree days  
Since 1 June heating degree days  
Since 1 July heating degree days  
Cooling Degree Days 0    
Month to date cooling degree days  
Year to date cooling degree days  
Since 1 June cooling degree days  
Growing Degree Days 13 (Base 50)    
Moisture  
Dew Point 54 °F    
Average Humidity 81    
Maximum Humidity 100    
Minimum Humidity 50    
Precipitation  
Precipitation 0.00 in - 0.00 in (2014)
Month to date precipitation  
Year to date precipitation  
Since 1 July precipitation  
Sea Level Pressure  
Sea Level Pressure 30.02 in    
Wind  
Wind Speed 5 mph (West)    
Max Wind Speed 18 mph    
Max Gust Speed 23 mph    
Visibility 10 miles    
Events      
T = Trace of Precipitation, MM = Missing Value Source: NWS Daily Summary

Daily Weather History Graph

Daily Weather History Graph

Search for Another Location

Airport:

Trip Planner

Search our weather history database for the weather conditions in past years. The results will help you decide how hot, cold, wet, or windy it might be!

Date:

Astronomy

Aug. 06, 2013 Rise Set
Actual Time 6:17 AM PDT 8:13 PM PDT
Civil Twilight 5:48 AM PDT 8:42 PM PDT
Nautical Twilight 5:13 AM PDT 9:17 PM PDT
Astronomical Twilight 4:35 AM PDT 9:55 PM PDT
Moon 6:12 AM PDT (8/6) 7:53 PM PDT (8/6)
Length of Visible Light 14h 54m
Length of Day
13h 56m
Waning Crescent, 0% of the Moon is Illuminated
Aug 6
Waning Crescent
Aug 6
New
Aug 14
First Quarter
Aug 20
Full
Aug 28
Last Quarter

Hourly Weather History & Observations

Time (PDT) Temp. Dew Point Humidity Pressure Visibility Wind Dir Wind Speed Gust Speed Precip Events Conditions
12:15 AM 55.4 °F 53.6 °F 94% 30.01 in 10.0 mi ENE 3.5 mph - N/A   Overcast
12:35 AM 55.4 °F 53.6 °F 94% 30.01 in 10.0 mi Calm Calm - N/A   Overcast
12:55 AM 55.4 °F 53.6 °F 94% 30.01 in 10.0 mi South 3.5 mph - N/A   Overcast
1:15 AM 55.4 °F 53.6 °F 94% 30.00 in 10.0 mi WSW 6.9 mph - N/A   Overcast
1:35 AM 55.4 °F 53.6 °F 94% 30.00 in 10.0 mi SW 3.5 mph - N/A   Unknown
1:55 AM 55.4 °F 53.6 °F 94% 30.00 in 10.0 mi Calm Calm - N/A   Unknown
2:15 AM 55.4 °F 53.6 °F 94% 30.00 in 10.0 mi Calm Calm - N/A   Unknown
2:35 AM 55.4 °F 53.6 °F 94% 30.00 in 10.0 mi NW 3.5 mph - N/A   Unknown
2:55 AM 55.4 °F 53.6 °F 94% 30.00 in 10.0 mi Calm Calm - N/A   Unknown
3:15 AM 55.4 °F 53.6 °F 94% 30.00 in 10.0 mi West 4.6 mph - N/A   Unknown
3:35 AM 53.6 °F 53.6 °F 100% 30.00 in 10.0 mi Calm Calm - N/A   Unknown
3:55 AM 53.6 °F 53.6 °F 100% 30.00 in 10.0 mi Calm Calm - N/A   Unknown
4:15 AM 53.6 °F 53.6 °F 100% 30.00 in 10.0 mi Calm Calm - N/A   Unknown
4:35 AM 53.6 °F 53.6 °F 100% 30.00 in 10.0 mi North 4.6 mph - N/A   Unknown
4:55 AM 53.6 °F 53.6 °F 100% 30.00 in 10.0 mi Calm Calm - N/A   Unknown
5:15 AM 53.6 °F 53.6 °F 100% 30.00 in 10.0 mi NNW 4.6 mph - N/A   Unknown
5:35 AM 53.6 °F 53.6 °F 100% 30.00 in 10.0 mi Calm Calm - N/A   Unknown
5:55 AM 53.6 °F 53.6 °F 100% 30.00 in 10.0 mi Calm Calm - N/A   Unknown
6:15 AM 53.6 °F 53.6 °F 100% 30.01 in 10.0 mi North 3.5 mph - N/A   Unknown
6:35 AM 53.6 °F 53.6 °F 100% 30.01 in 10.0 mi NNW 3.5 mph - N/A   Unknown
6:55 AM 53.6 °F 53.6 °F 100% 30.02 in 10.0 mi Calm Calm - N/A   Unknown
7:15 AM 53.6 °F 53.6 °F 100% 30.02 in 10.0 mi NW 3.5 mph - N/A   Unknown
7:35 AM 55.4 °F 53.6 °F 94% 30.02 in 10.0 mi North 5.8 mph - N/A   Unknown
7:55 AM 53.6 °F 51.8 °F 94% 30.03 in 10.0 mi Calm Calm - N/A   Unknown
8:15 AM 55.4 °F 53.6 °F 94% 30.03 in 10.0 mi Calm Calm - N/A   Unknown
8:35 AM 55.4 °F 53.6 °F 94% 30.04 in 10.0 mi West 4.6 mph - N/A   Overcast
8:55 AM 55.4 °F 53.6 °F 94% 30.04 in 10.0 mi SSW 4.6 mph - N/A   Overcast
9:15 AM 57.2 °F 53.6 °F 88% 30.04 in 10.0 mi SSE 3.5 mph - N/A   Overcast
9:35 AM 57.2 °F 53.6 °F 88% 30.04 in 10.0 mi SSW 4.6 mph - N/A   Overcast
9:55 AM 59.0 °F 53.6 °F 82% 30.05 in 10.0 mi SSW 6.9 mph - N/A   Overcast
10:15 AM 60.8 °F 53.6 °F 77% 30.05 in 10.0 mi SW 5.8 mph - N/A   Overcast
10:35 AM 62.6 °F 53.6 °F 72% 30.04 in 10.0 mi SW 5.8 mph - N/A   Scattered Clouds
10:55 AM 62.6 °F 53.6 °F 72% 30.04 in 10.0 mi SW 3.5 mph - N/A   Mostly Cloudy
11:15 AM 64.4 °F 53.6 °F 68% 30.04 in 10.0 mi SW 6.9 mph - N/A   Scattered Clouds
11:35 AM 66.2 °F 53.6 °F 64% 30.04 in 10.0 mi WSW 8.1 mph - N/A   Clear
11:55 AM 66.2 °F 53.6 °F 64% 30.03 in 10.0 mi SW 11.5 mph - N/A   Partly Cloudy
12:15 PM 68.0 °F 53.6 °F 60% 30.03 in 10.0 mi WSW 10.4 mph - N/A   Clear
12:35 PM 69.8 °F 53.6 °F 56% 30.02 in 10.0 mi West 9.2 mph - N/A   Clear
12:55 PM 68.0 °F 53.6 °F 60% 30.02 in 10.0 mi WSW 12.7 mph - N/A   Partly Cloudy
1:15 PM 69.8 °F 53.6 °F 56% 30.02 in 10.0 mi NW 8.1 mph - N/A   Clear
1:35 PM 71.6 °F 53.6 °F 53% 30.01 in 10.0 mi WSW 11.5 mph - N/A   Clear
1:55 PM 71.6 °F 53.6 °F 53% 30.01 in 10.0 mi WSW 11.5 mph - N/A   Clear
2:15 PM 73.4 °F 53.6 °F 50% 30.00 in 10.0 mi WSW 12.7 mph 16.1 mph N/A   Partly Cloudy
2:35 PM 71.6 °F 53.6 °F 53% 30.00 in - WSW 17.3 mph - N/A   Clear
2:55 PM 71.6 °F 53.6 °F 53% 30.00 in 10.0 mi WSW 15.0 mph 19.6 mph N/A   Partly Cloudy
3:15 PM 71.6 °F 53.6 °F 53% 30.00 in 10.0 mi WSW 18.4 mph - N/A   Clear
3:35 PM 71.6 °F 53.6 °F 53% 30.00 in 10.0 mi SW 17.3 mph 21.9 mph N/A   Clear
3:55 PM 68.0 °F 53.6 °F 60% 30.00 in 10.0 mi WSW 15.0 mph - N/A   Partly Cloudy
4:15 PM 69.8 °F 53.6 °F 56% 30.00 in 10.0 mi WSW 16.1 mph 20.7 mph N/A   Clear
4:35 PM 71.6 °F 53.6 °F 53% 29.99 in 10.0 mi SW 18.4 mph 23.0 mph N/A   Clear
4:55 PM 68.0 °F 53.6 °F 60% 30.00 in 10.0 mi West 5.8 mph - N/A   Clear
5:15 PM 69.8 °F 53.6 °F 56% 30.01 in 10.0 mi West 8.1 mph 16.1 mph N/A   Clear
5:35 PM 66.2 °F 53.6 °F 64% 30.01 in 10.0 mi NW 5.8 mph - N/A   Clear
5:55 PM 66.2 °F 53.6 °F 64% 30.01 in 10.0 mi NW 8.1 mph - N/A   Clear
6:15 PM 64.4 °F 53.6 °F 68% 30.01 in 10.0 mi NW 4.6 mph - N/A   Clear
6:35 PM 64.4 °F 53.6 °F 68% 30.01 in 10.0 mi North 4.6 mph - N/A   Partly Cloudy
6:55 PM 64.4 °F 53.6 °F 68% 30.01 in 10.0 mi NW 9.2 mph - N/A   Scattered Clouds
7:15 PM 62.6 °F 53.6 °F 72% 30.01 in 10.0 mi WNW 4.6 mph - N/A   Mostly Cloudy
7:35 PM 62.6 °F 53.6 °F 72% 30.02 in 10.0 mi NW 5.8 mph - N/A   Overcast
7:55 PM 60.8 °F 55.4 °F 82% 30.02 in 10.0 mi WSW 13.8 mph - N/A   Overcast
8:15 PM 60.8 °F 55.4 °F 82% 30.02 in 10.0 mi SW 9.2 mph 16.1 mph N/A   Overcast
8:35 PM 59.0 °F 55.4 °F 88% 30.03 in 10.0 mi WSW 6.9 mph - N/A   Overcast
8:55 PM 59.0 °F 55.4 °F 88% 30.03 in 10.0 mi WSW 6.9 mph - N/A   Overcast
9:15 PM 59.0 °F 55.4 °F 88% 30.04 in 10.0 mi WSW 11.5 mph 18.4 mph N/A   Overcast
9:35 PM 59.0 °F 55.4 °F 88% 30.04 in 10.0 mi WNW 6.9 mph - N/A   Unknown
9:55 PM 59.0 °F 55.4 °F 88% 30.05 in 10.0 mi West 10.4 mph - N/A   Unknown
10:15 PM 59.0 °F 55.4 °F 88% 30.05 in 10.0 mi WNW 5.8 mph - N/A   Unknown
10:35 PM 59.0 °F 55.4 °F 88% 30.05 in 10.0 mi West 4.6 mph - N/A   Unknown
10:55 PM 59.0 °F 55.4 °F 88% 30.06 in 10.0 mi West 5.8 mph - N/A   Unknown
11:15 PM 59.0 °F 57.2 °F 94% 30.06 in 10.0 mi Calm Calm - N/A   Unknown
11:35 PM 59.0 °F 57.2 °F 94% 30.06 in 10.0 mi Calm Calm - N/A   Unknown
11:55 PM 59.0 °F 57.2 °F 94% 30.06 in 10.0 mi WSW 6.9 mph - N/A   Unknown